EW4792 Weather Reports


Display with metric or nautical units.
time (UTC)temp
F
wind
direction
speed
MPH
gust
MPH
rain 1hr
in
rain 24hr
in
rain mn
in
humidity
%
barometer
mb
20260831080041 81 164 9.0 13.0 0.00 0.00 0.00 84 1017.2
20260831075543 81 165 10.0 13.0 0.00 0.00 0.00 84 1017.3
20260831075128 81 157 8.0 11.0 0.00 0.00 0.00 84 1017.3
20260831074626 80 182 8.0 11.0 0.00 0.00 0.00 83 1017.3
20260831073550 81 161 8.0 11.0 0.00 0.00 0.00 83 1017.2
20260831073131 81 165 9.0 12.0 0.00 0.00 0.00 83 1017.1
20260831072629 81 153 9.0 12.0 0.00 0.00 0.00 83 1017.2
20260831071618 81 170 8.0 11.0 0.00 0.00 0.00 83 1017.3
20260831071056 81 149 8.0 12.0 0.00 0.00 0.00 82 1017.3
20260831070556 81 156 10.0 12.0 0.00 0.00 0.00 82 1017.3
20260831070054 81 157 8.0 13.0 0.00 0.00 0.00 82 1017.4
20260831065549 81 157 9.0 16.0 0.00 0.00 0.00 82 1017.5
20260831065039 81 158 11.0 16.0 0.00 0.00 0.00 82 1017.5
20260831064554 81 176 11.0 18.0 0.00 0.00 0.00 81 1017.4
20260831064047 82 177 12.0 20.0 0.00 0.00 0.00 81 1017.4
20260831063602 82 184 14.0 20.0 0.00 0.00 0.00 80 1017.4
20260831063054 82 171 14.0 19.0 0.00 0.00 0.00 81 1017.4
20260831062608 82 157 14.0 19.0 0.00 0.00 0.00 79 1017.4
20260831062037 82 168 13.0 19.0 0.00 0.00 0.00 79 1017.4
20260831061551 82 165 13.0 19.0 0.00 0.00 0.00 78 1017.4
20260831061043 82 170 13.0 16.0 0.00 0.00 0.00 78 1017.3
20260831060539 83 163 13.0 19.0 0.00 0.00 0.00 78 1017.3
20260831060052 83 171 16.0 21.0 0.00 0.00 0.00 77 1017.3
20260831055547 83 174 16.0 21.0 0.00 0.00 0.00 76 1017.1
20260831055040 83 172 14.0 19.0 0.00 0.00 0.00 76 1017.0
20260831054554 83 186 13.0 16.0 0.00 0.00 0.00 76 1017.1
20260831054048 83 167 11.0 15.0 0.00 0.00 0.00 75 1017.1
20260831053542 83 162 11.0 15.0 0.00 0.00 0.00 75 1017.1
20260831053036 83 168 11.0 13.0 0.00 0.00 0.00 74 1017.2
20260831052551 84 167 10.0 14.0 0.00 0.00 0.00 75 1017.1
20260831052044 84 161 10.0 14.0 0.00 0.00 0.00 74 1017.2
20260831051539 84 169 11.0 15.0 0.00 0.00 0.00 74 1017.2
20260831051053 84 168 12.0 16.0 0.00 0.00 0.00 74 1016.9
20260831050548 84 161 12.0 15.0 0.00 0.00 0.00 73 1016.8
20260831050038 84 145 12.0 15.0 0.00 0.00 0.00 74 1016.8
20260831045045 85 149 14.0 19.0 0.00 0.00 0.00 73 1016.8
20260831044604 85 146 15.0 22.0 0.00 0.00 0.00 72 1016.7
20260831044040 85 141 16.0 22.0 0.00 0.00 0.00 72 1016.9
20260831043624 85 154 14.0 18.0 0.00 0.00 0.00 71 1016.9
20260831043135 85 144 13.0 18.0 0.00 0.00 0.00 72 1016.8
20260831042633 86 151 13.0 19.0 0.00 0.00 0.00 72 1016.8
20260831042042 86 151 15.0 19.0 0.00 0.00 0.00 70 1016.8
20260831041542 86 166 13.0 16.0 0.00 0.00 0.00 71 1016.8
20260831041041 86 155 13.0 18.0 0.00 0.00 0.00 71 1016.9
20260831040536 86 155 13.0 20.0 0.00 0.00 0.00 71 1016.8
20260831040135 86 156 13.0 20.0 0.00 0.00 0.00 71 1016.7
20260831035630 86 155 15.0 20.0 0.00 0.00 0.00 71 1016.7
20260831035044 87 156 14.0 18.0 0.00 0.00 0.00 70 1016.8
20260831034645 87 146 13.0 16.0 0.00 0.00 0.00 70 1016.6
20260831034117 87 157 12.0 15.0 0.00 0.00 0.00 69 1016.6
20260831033551 87 159 12.0 15.0 0.00 0.00 0.00 69 1016.5
20260831033050 87 154 13.0 19.0 0.00 0.00 0.00 68 1016.4
20260831032552 87 159 14.0 19.0 0.00 0.00 0.00 68 1016.3
20260831032051 87 166 13.0 18.0 0.00 0.00 0.00 66 1016.3
20260831031553 88 153 14.0 21.0 0.00 0.00 0.00 66 1016.4
20260831031052 88 160 16.0 21.0 0.00 0.00 0.00 66 1016.3
20260831030554 88 172 14.0 23.0 0.00 0.00 0.00 68 1016.2
20260831030051 88 166 16.0 23.0 0.00 0.00 0.00 66 1016.1
20260831025549 88 172 17.0 23.0 0.00 0.00 0.00 65 1016.0
20260831025124 88 158 17.0 23.0 0.00 0.00 0.00 64 1015.8
20260831024631 88 177 16.0 20.0 0.00 0.00 0.00 63 1015.8
20260831024145 89 170 14.0 19.0 0.00 0.00 0.00 65 1015.5
20260831023536 89 165 14.0 19.0 0.00 0.00 0.00 65 1015.4
20260831023049 89 159 12.0 18.0 0.00 0.00 0.00 66 1015.4
20260831022559 89 174 12.0 18.0 0.00 0.00 0.00 66 1015.3
20260831022112 89 162 12.0 20.0 0.00 0.00 0.00 66 1015.3
20260831021613 89 168 13.0 20.0 0.00 0.00 0.00 65 1015.1
20260831021048 89 167 12.0 18.0 0.00 0.00 0.00 65 1015.1
20260831020546 89 172 13.0 18.0 0.00 0.00 0.00 65 1014.9
20260831020051 89 162 14.0 18.0 0.00 0.00 0.00 65 1014.9
20260831015546 89 170 12.0 15.0 0.00 0.00 0.00 65 1014.7
20260831015150 90 167 10.0 16.0 0.00 0.00 0.00 65 1014.7
20260831014631 90 182 12.0 16.0 0.00 0.00 0.00 64 1014.7
20260831014129 90 172 11.0 19.0 0.00 0.00 0.00 65 1014.9
20260831013608 90 174 14.0 19.0 0.00 0.00 0.00 63 1014.8
20260831013129 90 162 14.0 18.0 0.00 0.00 0.00 64 1014.6
20260831012629 90 170 12.0 18.0 0.00 0.00 0.00 62 1014.7
20260831012125 90 161 12.0 19.0 0.00 0.00 0.00 64 1014.6
20260831011539 91 167 13.0 20.0 0.00 0.00 0.00 61 1014.7
20260831011040 91 157 16.0 20.0 0.00 0.00 0.00 58 1014.6
20260831010537 91 136 13.0 19.0 0.00 0.00 0.00 57 1014.3
20260831010121 91 138 10.0 13.0 0.00 0.00 0.00 55 1014.4
20260831005615 91 116 4.0 6.0 0.00 0.00 0.00 57 1014.3
20260831005128 92 116 4.0 6.0 0.00 0.00 0.00 55 1014.2
20260831004547 92 116 4.0 6.0 0.00 0.00 0.00 53 1014.2
20260831004152 92 109 3.0 7.0 0.00 0.00 0.00 53 1014.1
20260831003630 92 110 3.0 8.0 0.00 0.00 0.00 53 1014.1
20260831003125 92 109 5.0 8.0 0.00 0.00 0.00 55 1014.0
20260831002622 92 127 7.0 10.0 0.00 0.00 0.00 55 1014.1
20260831002118 92 144 8.0 10.0 0.00 0.00 0.00 56 1014.0
20260831001611 93 142 6.0 8.0 0.00 0.00 0.00 57 1014.1
20260831001107 93 153 6.0 8.0 0.00 0.00 0.00 55 1014.1
20260831000545 93 138 6.0 10.0 0.00 0.00 0.00 55 1014.1
20260831000137 93 139 5.0 10.0 0.00 0.00 0.00 54 1014.2
20260830235629 93 123 6.0 7.0 0.00 0.00 0.00 52 1014.1
20260830235037 93 122 5.0 8.0 0.00 0.00 0.00 53 1014.1
20260830234549 93 126 5.0 11.0 0.00 0.00 0.00 52 1014.1
20260830234107 93 117 7.0 12.0 0.00 0.00 0.00 51 1014.2
20260830233133 93 139 9.0 13.0 0.00 0.00 0.00 50 1014.2
20260830232624 93 152 9.0 13.0 0.00 0.00 0.00 49 1014.1
20260830232130 93 141 8.0 11.0 0.00 0.00 0.00 55 1014.2
20260830231046 93 153 9.0 13.0 0.00 0.00 0.00 54 1014.1
20260830230545 93 155 9.0 13.0 0.00 0.00 0.00 54 1014.2
20260830230107 93 157 11.0 13.0 0.00 0.00 0.00 54 1014.1
20260830225602 93 154 8.0 11.0 0.00 0.00 0.00 56 1014.2
20260830224547 93 155 6.0 12.0 0.00 0.00 0.00 57 1014.3
20260830224102 93 157 8.0 14.0 0.00 0.00 0.00 55 1014.2
20260830223627 93 146 11.0 16.0 0.00 0.00 0.00 52 1014.3
20260830223118 93 148 12.0 16.0 0.00 0.00 0.00 54 1014.3
20260830222631 93 152 13.0 15.0 0.00 0.00 0.00 51 1014.3
20260830222101 93 145 8.0 13.0 0.00 0.00 0.00 50 1014.2
20260830221536 93 136 10.0 12.0 0.00 0.00 0.00 50 1014.2
20260830221052 93 174 7.0 10.0 0.00 0.00 0.00 51 1014.4
20260830220644 93 155 6.0 14.0 0.00 0.00 0.00 52 1014.5
20260830220116 93 189 7.0 14.0 0.00 0.00 0.00 51 1014.4
20260830215615 93 105 7.0 12.0 0.00 0.00 0.00 53 1014.4
20260830215112 93 140 9.0 13.0 0.00 0.00 0.00 51 1014.4
20260830214606 92 165 7.0 13.0 0.00 0.00 0.00 54 1014.5
20260830213633 92 174 8.0 15.0 0.00 0.00 0.00 55 1014.5
20260830213133 92 190 10.0 15.0 0.00 0.00 0.00 56 1014.5
20260830212606 92 169 11.0 14.0 0.00 0.00 0.00 51 1014.7
20260830212057 92 140 2.0 7.0 0.00 0.00 0.00 54 1014.9
20260830211559 92 170 4.0 8.0 0.00 0.00 0.00 54 1015.0
20260830211058 92 181 5.0 11.0 0.00 0.00 0.00 55 1015.0
20260830210543 92 103 8.0 11.0 0.00 0.00 0.00 54 1015.3
20260830210058 92 132 3.0 11.0 0.00 0.00 0.00 55 1015.3
20260830205612 91 139 5.0 14.0 0.00 0.00 0.00 54 1015.2
20260830205109 91 146 11.0 14.0 0.00 0.00 0.00 57 1015.4
20260830204048 91 148 7.0 16.0 0.00 0.00 0.00 59 1015.6
20260830203603 91 159 8.0 11.0 0.00 0.00 0.00 59 1015.5
20260830203059 91 179 7.0 14.0 0.00 0.00 0.00 58 1015.7
20260830202600 91 142 8.0 14.0 0.00 0.00 0.00 60 1015.8
20260830201631 91 156 9.0 14.0 0.00 0.00 0.00 58 1016.0
20260830201135 91 172 9.0 13.0 0.00 0.00 0.00 60 1016.1
20260830200631 90 209 10.0 13.0 0.00 0.00 0.00 60 1016.3
20260830195632 90 174 6.0 9.0 0.00 0.00 0.00 59 1016.4
20260830195132 90 182 3.0 12.0 0.00 0.00 0.00 59 1016.5
20260830194539 90 148 7.0 12.0 0.00 0.00 0.00 59 1016.6
20260830194059 90 168 8.0 10.0 0.00 0.00 0.00 62 1016.6
20260830193620 89 187 2.0 11.0 0.00 0.00 0.00 59 1016.7
20260830193048 89 172 7.0 15.0 0.00 0.00 0.00 60 1016.8
20260830192630 89 226 12.0 15.0 0.00 0.00 0.00 60 1016.8
20260830192125 89 234 3.0 8.0 0.00 0.00 0.00 62 1016.8
20260830191620 88 136 1.0 7.0 0.00 0.00 0.00 62 1016.9
20260830191117 89 190 4.0 13.0 0.00 0.00 0.00 63 1017.2
20260830190612 89 159 9.0 13.0 0.00 0.00 0.00 63 1017.3
20260830190104 88 155 7.0 13.0 0.00 0.00 0.00 64 1017.1
20260830185602 88 150 5.0 19.0 0.00 0.00 0.00 62 1017.3
20260830185135 88 149 12.0 19.0 0.00 0.00 0.00 63 1017.3
20260830184612 88 206 1.0 8.0 0.00 0.00 0.00 64 1017.4
20260830184105 88 217 5.0 14.0 0.00 0.00 0.00 65 1017.5
20260830183548 88 124 4.0 14.0 0.00 0.00 0.00 64 1017.4
20260830183103 87 193 7.0 14.0 0.00 0.00 0.00 64 1017.7
20260830182603 87 187 2.0 8.0 0.00 0.00 0.00 65 1017.7
20260830182115 87 173 5.0 11.0 0.00 0.00 0.00 66 1017.8
20260830181611 87 168 8.0 11.0 0.00 0.00 0.00 66 1017.8
20260830181125 87 144 6.0 10.0 0.00 0.00 0.00 67 1017.8
20260830180619 87 165 1.0 8.0 0.00 0.00 0.00 66 1018.0
20260830175603 87 184 7.0 12.0 0.00 0.00 0.00 66 1018.2
20260830175100 87 142 5.0 12.0 0.00 0.00 0.00 67 1018.1
20260830174613 87 155 8.0 12.0 0.00 0.00 0.00 69 1018.2
20260830174106 86 205 5.0 9.0 0.00 0.00 0.00 69 1018.4
20260830173134 86 208 5.0 9.0 0.00 0.00 0.00 68 1018.4
20260830172629 86 163 6.0 9.0 0.00 0.00 0.00 68 1018.5
20260830172108 86 134 3.0 8.0 0.00 0.00 0.00 69 1018.6
20260830171133 86 172 5.0 11.0 0.00 0.00 0.00 69 1018.7
20260830170608 85 181 7.0 11.0 0.00 0.00 0.00 70 1018.6
20260830170107 85 155 7.0 10.0 0.00 0.00 0.00 71 1018.8
20260830165545 85 166 2.0 7.0 0.00 0.00 0.00 71 1018.9
20260830165049 85 193 4.0 10.0 0.00 0.00 0.00 72 1019.0
20260830164546 85 221 6.0 12.0 0.00 0.00 0.00 72 1018.9
20260830164150 84 191 5.0 11.0 0.00 0.00 0.00 73 1019.0
20260830163626 84 222 3.0 9.0 0.00 0.00 0.00 73 1019.0
20260830163105 84 219 3.0 9.0 0.00 0.00 0.00 74 1018.9
20260830162544 84 224 6.0 10.0 0.00 0.00 0.00 73 1019.0
20260830162041 84 222 6.0 10.0 0.00 0.00 0.00 75 1018.9
20260830161621 84 206 6.0 8.0 0.00 0.00 0.00 76 1019.0
20260830161115 83 196 0.0 9.0 0.00 0.00 0.00 76 1018.9
20260830160616 83 222 6.0 11.0 0.00 0.00 0.00 77 1018.9
20260830160131 83 240 7.0 11.0 0.00 0.00 0.00 77 1018.9
20260830155630 83 234 6.0 12.0 0.00 0.00 0.00 77 1018.9
20260830155108 83 235 10.0 12.0 0.00 0.00 0.00 78 1018.9
20260830154545 82 232 5.0 10.0 0.00 0.00 0.00 79 1018.9
20260830154045 82 201 3.0 7.0 0.00 0.00 0.00 81 1018.8
20260830153607 82 220 4.0 8.0 0.00 0.00 0.00 81 1018.8
20260830153046 81 238 3.0 9.0 0.00 0.00 0.00 82 1018.9
20260830152604 81 222 6.0 9.0 0.00 0.00 0.00 81 1018.9
20260830152101 81 222 2.0 6.0 0.00 0.00 0.00 82 1018.9
20260830151559 81 209 2.0 5.0 0.00 0.00 0.00 83 1018.8
20260830151053 81 182 1.0 7.0 0.00 0.00 0.00 83 1018.7
20260830150549 81 193 2.0 7.0 0.00 0.00 0.00 83 1018.9
20260830150106 81 220 2.0 7.0 0.00 0.00 0.00 84 1018.9
20260830145111 81 172 6.0 12.0 0.00 0.00 0.00 84 1018.8
20260830144612 80 192 4.0 12.0 0.00 0.00 0.00 84 1019.0
20260830144107 81 199 7.0 12.0 0.00 0.00 0.00 85 1019.0
20260830143607 80 236 7.0 10.0 0.00 0.00 0.00 85 1018.9
20260830142551 80 228 6.0 10.0 0.00 0.00 0.00 86 1019.0
20260830142133 80 228 5.0 9.0 0.00 0.00 0.00 86 1019.0
20260830141541 79 203 6.0 11.0 0.00 0.00 0.00 86 1019.0
20260830141126 79 234 7.0 11.0 0.00 0.00 0.00 86 1018.8
20260830140625 79 181 7.0 10.0 0.00 0.00 0.00 86 1018.7
20260830140122 79 168 4.0 11.0 0.00 0.00 0.00 87 1018.8
20260830135618 79 172 8.0 11.0 0.00 0.00 0.00 87 1018.8
20260830135115 79 178 3.0 8.0 0.00 0.00 0.00 87 1018.8
20260830134608 79 200 3.0 7.0 0.00 0.00 0.00 87 1018.8
20260830134104 79 193 4.0 7.0 0.00 0.00 0.00 87 1018.8
20260830133621 79 172 5.0 8.0 0.00 0.00 0.00 87 1018.7
20260830133101 78 190 5.0 9.0 0.00 0.00 0.00 87 1018.7
20260830132541 78 167 5.0 9.0 0.00 0.00 0.00 87 1018.6
20260830132038 78 176 4.0 8.0 0.00 0.00 0.00 87 1018.6
20260830131547 78 165 5.0 8.0 0.00 0.00 0.00 87 1018.6
20260830131047 78 161 4.0 8.0 0.00 0.00 0.00 87 1018.6
20260830130633 78 130 5.0 8.0 0.00 0.00 0.00 87 1018.4
20260830130041 78 148 4.0 6.0 0.00 0.00 0.00 87 1018.3
20260830125557 78 166 3.0 6.0 0.00 0.00 0.00 87 1018.3
20260830125110 78 186 4.0 6.0 0.00 0.00 0.00 87 1018.3
20260830124607 78 181 4.0 6.0 0.00 0.00 0.00 87 1018.3
20260830124048 78 169 2.0 5.0 0.00 0.00 0.00 87 1018.2
20260830123545 78 182 2.0 5.0 0.00 0.00 0.00 87 1018.0
20260830123100 78 234 1.0 5.0 0.00 0.00 0.00 87 1018.0
20260830122535 78 199 1.0 6.0 0.00 0.00 0.00 87 1018.0
20260830122133 78 209 1.0 7.0 0.00 0.00 0.00 87 1018.0
20260830121630 78 215 4.0 7.0 0.00 0.00 0.00 87 1017.9
20260830121126 78 202 3.0 5.0 0.00 0.00 0.00 87 1017.9
20260830120615 78 220 3.0 7.0 0.00 0.00 0.00 87 1017.9
20260830120110 78 199 4.0 7.0 0.00 0.00 0.00 87 1017.9
20260830115609 78 225 1.0 7.0 0.00 0.00 0.00 87 1017.8
20260830115107 78 232 4.0 7.0 0.00 0.00 0.00 86 1017.9
20260830114129 78 225 2.0 6.0 0.00 0.00 0.00 86 1017.8
20260830113621 78 228 2.0 6.0 0.00 0.00 0.00 86 1017.7
20260830113119 78 241 4.0 6.0 0.00 0.00 0.00 86 1017.7
20260830112635 78 223 1.0 6.0 0.00 0.00 0.00 86 1017.7
20260830112128 78 228 3.0 8.0 0.00 0.00 0.00 86 1017.7
20260830111625 78 229 3.0 8.0 0.00 0.00 0.00 86 1017.8
20260830111121 78 223 5.0 8.0 0.00 0.00 0.00 86 1017.7
20260830110634 78 235 6.0 7.0 0.00 0.00 0.00 86 1017.7
20260830110127 78 234 3.0 7.0 0.00 0.00 0.00 85 1017.8
20260830105627 78 236 1.0 7.0 0.00 0.00 0.00 86 1017.6
20260830105123 78 237 2.0 7.0 0.00 0.00 0.00 85 1017.5
20260830104620 78 223 3.0 6.0 0.00 0.00 0.00 85 1017.6
20260830104133 78 244 2.0 8.0 0.00 0.00 0.00 85 1017.7
20260830103609 78 232 3.0 8.0 0.00 0.00 0.00 85 1017.8
20260830103105 78 230 5.0 8.0 0.00 0.00 0.00 85 1017.8
20260830102607 79 222 4.0 8.0 0.00 0.00 0.00 85 1017.8
20260830102127 79 201 5.0 8.0 0.00 0.00 0.00 85 1017.7
20260830101606 79 184 4.0 8.0 0.00 0.00 0.00 85 1017.6
20260830101102 79 207 6.0 8.0 0.00 0.00 0.00 85 1017.6
20260830100543 78 176 6.0 8.0 0.00 0.00 0.00 85 1017.5
20260830100122 79 189 4.0 10.0 0.00 0.00 0.00 84 1017.5
20260830095617 79 179 6.0 11.0 0.00 0.00 0.00 84 1017.5
20260830095112 79 149 6.0 11.0 0.00 0.00 0.00 84 1017.6
20260830094610 79 220 5.0 9.0 0.00 0.00 0.00 84 1017.5
20260830094107 79 209 6.0 10.0 0.00 0.00 0.00 83 1017.5
20260830093605 79 209 7.0 10.0 0.00 0.00 0.00 84 1017.5
20260830092633 79 175 4.0 8.0 0.00 0.00 0.00 83 1017.5
20260830092124 79 209 5.0 8.0 0.00 0.00 0.00 82 1017.5
20260830091625 79 202 5.0 8.0 0.00 0.00 0.00 82 1017.6
20260830091123 79 188 4.0 10.0 0.00 0.00 0.00 82 1017.7
20260830090538 79 180 6.0 10.0 0.00 0.00 0.00 82 1017.7
20260830090137 79 195 5.0 9.0 0.00 0.00 0.00 82 1017.5
20260830085616 79 193 6.0 10.0 0.00 0.00 0.00 82 1017.5
20260830085111 79 193 4.0 10.0 0.00 0.00 0.00 82 1017.7
20260830084605 79 178 5.0 10.0 0.00 0.00 0.00 81 1017.6
20260830084104 79 174 5.0 9.0 0.00 0.00 0.00 81 1017.5
20260830083604 79 172 5.0 7.0 0.00 0.00 0.00 81 1017.6
20260830082629 79 188 6.0 9.0 0.00 0.00 0.00 80 1017.6
20260830082124 80 186 4.0 9.0 0.00 0.00 0.00 80 1017.7
20260830081633 80 195 4.0 7.0 0.00 0.00 0.00 80 1017.6
20260830081131 80 204 3.0 8.0 0.00 0.00 0.00 80 1017.6
20260830080612 80 188 6.0 10.0 0.00 0.00 0.00 80 1017.7